Tracking 21676 objects as of 29-Oct-2020
HD Live streaming from Space Station
objects crossing your sky now

COSMOS 637

Track COSMOS 637 now!
COSMOS 637 is classified as:


NORAD ID: 7229
Int'l Code: 1974-017A
Perigee: 35,478.1 km
Apogee: 35,825.9 km
Inclination: 6.0 °
Period: 1,428.9 minutes
Semi major axis: 42023 km
RCS: 2.5118 m2 (large)
Launch date: March 26, 1974
Source: Commonwealth of Independent States (former USSR) (CIS)
Launch site: TYURATAM MISSILE AND SPACE COMPLEX (TTMTR)
aabbcc
Your satellite tracking list
Your tracking list is empty




NASA's NSSDC Master Catalog

Two Line Element Set (TLE):
1  7229U 74017A   20302.17951299 +.00000082 +00000-0 +00000-0 0  9999
2  7229 006.0112 292.3083 0041380 006.1531 012.8303 01.00779469101463
Source of the keplerian elements: AFSPC